Tracking 18032 objects as of 27-March-2017
HD Live streaming from Space Station
objects crossing your sky now

TERRIERS

Track TERRIERS now!
10-day predictions
TERRIERS is classified as:


NORAD ID: 25735
Int'l Code: 1999-026A
Perigee: 436.3 km
Apogee: 441.3 km
Inclination: 97.2 °
Period: 93.2 minutes
Semi major axis: 6809 km
RCS: 0.4968 m2 (medium)
Launch date: May 18, 1999
Source: United States (US)
Launch site: Pegasus launched from Western Range Air Space (WRAS)
Your satellite tracking list
Your tracking list is empty





NASA's NSSDC Master Catalog

Two Line Element Set (TLE):
1 25735U 99026A   17085.86467461 +.00002850 +00000-0 +62472-4 0  9991
2 25735 097.1725 252.5808 0003648 333.6791 026.4272 15.44914739993571
Source of the keplerian elements: AFSPC